| time (UTC) | temp F | wind direction | speed knots | gust knots | rain 1hr in | rain 24hr in | rain mn in | humidity % | barometer mb |
| 20260505203017 | 59 | 135 | 0.9 | 0.0 | 0.00 | 0.00 | 0.00 | 58 | 1026.3 |
| 20260505200016 | 59 | 112 | 0.0 | 0.0 | 0.00 | 0.00 | 0.00 | 59 | 1025.6 |
| 20260505193015 | 59 | 67 | 0.0 | 0.0 | 0.00 | 0.00 | 0.00 | 58 | 1025.9 |
| 20260505193009 | 59 | 135 | 0.9 | 0.0 | 0.00 | 0.00 | 0.00 | 58 | 1025.9 |
| 20260505190007 | 59 | 90 | 0.0 | 0.0 | 0.00 | 0.00 | 0.00 | 59 | 1025.7 |
| 20260505183007 | 59 | 112 | 0.0 | 0.0 | 0.00 | 0.00 | 0.00 | 58 | 1025.6 |
| 20260505180006 | 59 | 135 | 0.0 | 0.0 | 0.00 | 0.00 | 0.00 | 58 | 1025.3 |
| 20260505173005 | 60 | 135 | 0.0 | 0.0 | 0.00 | 0.00 | 0.00 | 57 | 1025.1 |
| 20260505170004 | 60 | 67 | 0.0 | 0.0 | 0.00 | 0.00 | 0.00 | 56 | 1024.6 |
| 20260505163003 | 60 | 112 | 0.0 | 0.0 | 0.00 | 0.00 | 0.00 | 55 | 1024.5 |
| 20260505153002 | 61 | 112 | 0.0 | 0.0 | 0.00 | 0.00 | 0.00 | 55 | 1024.0 |
| 20260505123027 | 64 | 45 | 0.0 | 0.0 | 0.00 | 0.00 | 0.00 | 56 | 1026.0 |
| 20260505120027 | 64 | 45 | 0.0 | 0.0 | 0.00 | 0.00 | 0.00 | 57 | 1026.0 |
| 20260505113025 | 65 | 0 | 0.0 | 0.0 | 0.00 | 0.00 | 0.00 | 54 | 1025.5 |
| 20260505093022 | 68 | 292 | 0.0 | 0.0 | 0.00 | 0.00 | 0.00 | 41 | 1023.1 |
| 20260505090022 | 70 | 225 | 7.0 | 0.0 | 0.00 | 0.00 | 0.00 | 37 | 1022.6 |
| 20260505083021 | 71 | 270 | 5.2 | 0.0 | 0.00 | 0.00 | 0.00 | 36 | 1021.9 |
| 20260505080020 | 74 | 292 | 3.5 | 0.0 | 0.00 | 0.00 | 0.00 | 33 | 1021.4 |
| 20260505073010 | 75 | 270 | 5.2 | 0.0 | 0.00 | 0.00 | 0.00 | 31 | 1020.8 |
| 20260505070009 | 81 | 247 | 8.7 | 0.0 | 0.00 | 0.00 | 0.00 | 31 | 1020.2 |
| 20260505063008 | 84 | 292 | 2.6 | 0.0 | 0.00 | 0.00 | 0.00 | 27 | 1020.3 |
| 20260505060008 | 84 | 315 | 1.7 | 0.0 | 0.00 | 0.00 | 0.00 | 27 | 1020.6 |
| 20260505053007 | 84 | 315 | 7.8 | 0.0 | 0.00 | 0.00 | 0.00 | 27 | 1020.9 |
| 20260505040025 | 83 | 337 | 0.0 | 0.0 | 0.00 | 0.00 | 0.00 | 29 | 1022.2 |
| 20260505033024 | 82 | 315 | 7.8 | 0.0 | 0.00 | 0.00 | 0.00 | 31 | 1022.9 |
| 20260505030024 | 81 | 315 | 7.0 | 0.0 | 0.00 | 0.00 | 0.00 | 33 | 1023.3 |
| 20260505023023 | 80 | 315 | 8.7 | 0.0 | 0.00 | 0.00 | 0.00 | 35 | 1024.0 |
| 20260505020022 | 78 | 315 | 2.6 | 0.0 | 0.00 | 0.00 | 0.00 | 36 | 1024.7 |
| 20260505013022 | 76 | 0 | 1.7 | 0.0 | 0.00 | 0.00 | 0.00 | 36 | 1025.3 |
| 20260505010021 | 73 | 0 | 0.0 | 0.0 | 0.00 | 0.00 | 0.00 | 37 | 1026.1 |
| 20260505003020 | 71 | 112 | 0.0 | 0.0 | 0.00 | 0.00 | 0.00 | 40 | 1026.3 |
| 20260505000019 | 69 | 112 | 0.0 | 0.0 | 0.00 | 0.00 | 0.00 | 45 | 1026.7 |
| 20260504233018 | 65 | 135 | 1.7 | 0.0 | 0.00 | 0.00 | 0.00 | 51 | 1027.2 |
| 20260504230018 | 62 | 90 | 0.0 | 0.0 | 0.00 | 0.00 | 0.00 | 54 | 1027.2 |
| 20260504223016 | 59 | 157 | 0.0 | 0.0 | 0.00 | 0.00 | 0.00 | 60 | 1027.2 |
| 20260504220015 | 56 | 112 | 0.0 | 0.0 | 0.00 | 0.00 | 0.00 | 66 | 1027.0 |
| 20260504213015 | 54 | 135 | 0.0 | 0.0 | 0.00 | 0.00 | 0.00 | 67 | 1026.8 |
| 20260504210014 | 53 | 157 | 0.0 | 0.0 | 0.00 | 0.00 | 0.00 | 66 | 1025.9 |